Regional Weather Roundup
Issued by NWS

Home | Current Version | Previous Version | Graphics & Text | Print | Product List | Glossary On
Versions: 1 2 3 4 5 6 7 8 9 10 11 12 13 14 15 16 17 18 19 20 21 22 23 24 25 26 27 28 29 30 31 32 33 34 35 36 37 38 39 40 41 42 43 44 45 46 47 48 49 50
000
ASUS43 KDTX 010110
RWRMI
MICHIGAN HOURLY REGIONAL WEATHER ROUNDUP
NATIONAL WEATHER SERVICE DETROIT/PONTIAC MI
900 PM EDT TUE SEP 30 2014

NOTE: "FAIR" INDICATES FEW OR NO CLOUDS BELOW 12,000 FEET WITH NO
SIGNIFICANT WEATHER AND/OR OBSTRUCTION TO VISIBILITY.

MIZ047>049-052>055-059>063-066>070-074>076-081>083-010200-
SOUTHEAST LOWER MICHIGAN

CITY           SKY/WX    TMP DP  RH WIND       PRES   REMARKS
ADRIAN         CLOUDY    54  49  83 NE6       30.02R
ALMA           CLOUDY    52  49  88 NE6       30.04R
ANN ARBOR      CLEAR     50  45  83 NE6       30.01R
BAD AXE        CLOUDY    53  53 100 N10       30.03R FOG
DETROIT CITY   CLOUDY    52  46  80 N7        30.01S
DETROIT        MOCLDY    53  48  83 N6        30.01S
FLINT          CLOUDY    53  49  86 N6        30.04R FOG
GROSSE ILE     CLOUDY    55  48  76 N7        29.99S
HILLSDALE      CLOUDY    55  51  87 CALM      30.02R
HOWELL         CLOUDY    50  47  91 NE3       30.02S

CITY           SKY/WX    TMP DP  RH WIND       PRES   REMARKS
JACKSON        CLOUDY    52  47  83 NE3       30.02R
LAMBERTVILLE   CLOUDY    54  50  87 CALM      30.01R
LANSING        CLOUDY    52  47  83 CALM      30.03R
LAPEER         NOT AVBL
MASON          CLOUDY    50  47  90 CALM      30.03R
MONROE         CLOUDY    54  50  87 NW5       29.99S
MT. CLEMENS    CLOUDY    52  52  99 N10       29.99S
PONTIAC        CLOUDY    51  47  86 N12       30.00S
PORT HOPE        N/A     57  55  93 NE15      30.01R
PORT HURON     CLOUDY    52  52 100 NW5       30.00S
TRI CITIES     CLOUDY    53  47  79 N10       30.04S
YPSILANTI      CLOUDY    55  48  77 N6        30.02R
$$
MIZ043>046-050>051-056>058-064>065-071>073-077>080-010200-
SOUTHWEST LOWER MICHIGAN

CITY           SKY/WX    TMP DP  RH WIND       PRES   REMARKS
BATTLE CREEK   CLOUDY    55  48  77 NE3       30.03R
BIG RAPIDS     CLOUDY    52  52  99 CALM      30.03S
COLDWATER      CLOUDY    56  50  78 NE7       30.01R
HOLLAND        CLOUDY    55  48  77 N5        30.03
GRAND RAPIDS   CLOUDY    55  49  80 NE6       30.03R
KALAMAZOO      CLOUDY    55  48  77 CALM      30.03R
MARSHALL       CLOUDY    53  47  81 CALM      30.02R
MUSKEGON       CLOUDY    54  46  74 NE3       30.04R
$$
MIZ016>042-010200-
NORTHERN LOWER MICHIGAN

CITY           SKY/WX    TMP DP  RH WIND       PRES   REMARKS
ALPENA         CLOUDY    51  48  89 NW6       30.07R
BEAVER ISLAND  CLOUDY    53  49  87 CALM      30.07R
BELLAIRE       CLOUDY    51  47  87 CALM      30.07R
CADILLAC       CLOUDY    49  48  97 N5        30.03S
CHARLEVOIX     CLOUDY    52  48  87 E7        30.09R
FRANKFORT      CLOUDY    52  47  83 CALM      30.05S
GAYLORD        CLOUDY    47  46  97 NE7       30.06S FOG
GRAYLING       CLOUDY    49  47  93 NE6       30.07R
HARBOR SPRINGS CLOUDY    51  47  86 NE3       30.07R
HOUGHTON LAKE  CLOUDY    49  46  90 NE6       30.06S
OSCODA         CLOUDY    49  49  99 N8        30.05R FOG
PELLSTON       CLOUDY    51  48  89 CALM      30.07S
TRAVERSE CITY  CLOUDY    53  47  79 NE8       30.05R
$$
MIZ007>008-015-010200-
EASTERN UPPER MICHIGAN

CITY           SKY/WX    TMP DP  RH WIND       PRES   REMARKS
MACKINAC ISLAN CLOUDY    52  50  92 NE7       30.06S
NEWBERRY       CLOUDY    49  46  88 NW3       30.07R
S. S. MARIE    CLOUDY    52  47  83 CALM      30.07R
$$
MIZ004>006-011>014-085-010200-
CENTRAL UPPER MICHIGAN

CITY           SKY/WX    TMP DP  RH WIND       PRES   REMARKS
MANISTIQUE     CLOUDY    52  49  91 CALM      30.06S
SAWYER-GWINN   CLOUDY    43  41  93 CALM      30.06F
$$
MIZ001>003-009>011-084-010200-
WESTERN UPPER MICHIGAN

CITY           SKY/WX    TMP DP  RH WIND       PRES   REMARKS
IRON MOUNTAIN  CLEAR     48  42  80 E5        30.04R
HOUGHTON       PTCLDY    43  39  86 E9        30.04R
COPPER HARBOR    N/A     44  38  79 S5        30.06F
$$

ABBREVIATIONS USED IN REMARKS
   TC - TEMPERATURE IN CELSIUS
  WCI - WIND CHILL INDEX
   HX - HEAT INDEX
  VSB - VISIBILITY




USA.gov is the U.S. government's official web portal to all federal, state and local government web resources and services.